Regional Weather Roundup
Issued by NWS

Home | Current Version | Previous Version | Text Only | Print | Product List | Glossary On
Versions: 1 2 3 4 5 6 7 8 9 10 11 12 13 14 15 16 17 18 19 20 21 22 23 24 25 26 27 28
000
ASUS45 KTFX 211410
RWRMT
MONTANA REGIONAL WEATHER ROUNDUP
NATIONAL WEATHER SERVICE GREAT FALLS MT
700 AM MST TUE FEB 21 2017

NOTE: "FAIR" INDICATES FEW OR NO CLOUDS BELOW 12000 FEET WITH NO
SIGNIFICANT WEATHER AND/OR OBSTRUCTIONS TO VISIBILITY.

MTZ001>007-043-211500-
WEST OF THE DIVIDE

CITY           SKY/WX    TMP DP  RH WIND       PRES   REMARKS
KALISPELL      CLOUDY    30  29  96 CALM      29.65F
MISSOULA       LGT RAIN  32  32 100 CALM      29.66S FOG
BUTTE          CLOUDY    40  29  64 SE5       29.67F
MULLAN PASS    LGT SNOW  26  26 100 SE7       29.56F VSB 3/4 WCI  18
ANACONDA         N/A     39  30  70 SE9G18    29.66S
DEER LODGE       N/A     32  32 100 W6        29.68S WCI  26
EUREKA           N/A     30  28  93 CALM      29.66F
HAMILTON         N/A     34  34 100 CALM      29.66S
LIBBY            N/A     30  28  93 CALM      29.66S
RONAN            N/A     35  32  89 CALM      29.71F
$$

MTZ008-052>055-211500-
SOUTHWEST MONTANA

CITY           SKY/WX    TMP DP  RH WIND       PRES   REMARKS
BOZEMAN        CLOUDY    34  30  85 SE7       29.71R WCI  28
DILLON         CLOUDY    40  30  67 SW21G30   29.71S
W YELLOWSTONE  CLOUDY    34  32  93 SW10G23   29.84R WCI  26
ENNIS          MOCLDY    41  30  65 S23G31    29.78S
THREE FORKS      N/A     41 -23   6 CALM      29.70S
$$

MTZ009-010-012-014-046-048-049-054-211500-
EAST SLOPES AND CENTRAL MONTANA

CITY           SKY/WX    TMP DP  RH WIND       PRES   REMARKS
CUT BANK       MOCLDY    34  23  64 N6        29.61F WCI  29
GREAT FALLS    LGT RAIN  41  32  70 SW9       29.63R
MALMSTROM AFB  LGT RAIN  37  31  79 SW3       29.64R
HELENA         PTCLDY    32  30  92 CALM      29.65F
AUGUSTA          N/A     34  29  82 E3        29.59F
BOWMANS CRNR   MOCLDY    35  30  80 S9        29.59F WCI  28
CHOTEAU          N/A     39  30  70 SW12G18   29.60F WCI  32
CONRAD           N/A     32  29  89 NE1       29.67S
POWER          CLOUDY    39  29  67 SW10      29.61F WCI  32
RAYNESFORD     MOCLDY    43  32  66 S8        29.63S
ULM            MOCLDY    40  30  66 MISG      29.63S
$$

MTZ011-013-016-021-045-047-050-051-211500-
NORTH CENTRAL MONTANA

CITY           SKY/WX    TMP DP  RH WIND       PRES   REMARKS
HAVRE          CLOUDY    37  31  78 W10       29.63S WCI  30
LEWISTOWN      CLOUDY    36  28  73 SE7       29.65S WCI  30
N BAR RANCH    CLOUDY    37  27  65 CALM      29.69S
CHINOOK          N/A     37  30  75 SW6       29.64R
DENTON         CLOUDY    38  30  71 W10G18    29.62R WCI  32
FORT BENTON      N/A    N/A N/A N/A N3        29.65S
GEYSER         LGT RAIN  41  31  68 S9        29.64R
GRASS RANGE    CLOUDY    37  29  72 W6        29.63S
JUDITH GAP     MOCLDY    38  30  73 S12       29.66S WCI  30
ROY            CLOUDY    43  29  58 MISG      29.65S
STANFORD       MOCLDY    37  29  74 CALM      29.63F
WINIFRED       MOCLDY    38  30  72 SE6       29.64S
$$

MTZ017>020-022>027-061-062-211500-
NORTHEAST MONTANA

CITY           SKY/WX    TMP DP  RH WIND       PRES   REMARKS
GLASGOW        PTCLDY    33  30  88 VRB6      29.66R WCI  28
JORDAN           N/A     33  30  88 W7        29.68R WCI  27
SIDNEY         CLEAR     27  25  92 SW6       29.68S WCI  20
WOLF POINT     CLOUDY    27  24  89 CALM      29.67S FOG
PLENTYWOOD       N/A     34  34 100 CALM      29.63S
POPLAR           N/A     30  28  93 CALM      29.68R
$$

MTZ028>42-056>058-211500-
SOUTHCENTRAL AND SOUTHEAST MONTANA

CITY           SKY/WX    TMP DP  RH WIND       PRES   REMARKS
BAKER          PTCLDY    35  28  75 CALM      29.72S
BILLINGS       MOCLDY    42  32  67 W8        29.68F
LIVINGSTON     CLOUDY    46  32  58 SW35G45   29.67S
MILES CITY     LGT RAIN  41  32  70 SE8       29.71R
BIG TIMBER     CLOUDY    45  32  61 SW10      29.70R
FORSYTH          N/A     45  37  76 CALM      29.72R
HARLOWTON      MOCLDY    38  29  68 N3        29.66F
LAUREL           N/A     45  28  51 SW9       29.70S
$$

REGIONAL REPORTS...DAKOTAS

CITY           SKY/WX    TMP DP  RH WIND       PRES   REMARKS
WILLISTON      CLEAR     29  26  89 S5        29.66F
MINOT          CLEAR     31  27  85 CALM      29.64R
DICKINSON      PTCLDY    35  28  75 W9        29.67F WCI  28
BEACH            N/A    N/A N/A N/A MISG        N/A
CROSBY           N/A     28  28 100 S9        29.65S WCI  20
TIOGA            N/A     32  32 100 W5        29.66R
WATFORD CITY     N/A     30  27  86 SW12      29.67S WCI  21
BISMARCK       PTCLDY    31  27  85 CALM      29.69R
GRAND FORKS    PTCLDY    30  26  85 E6        29.71S FOG     WCI  24
FARGO          PTCLDY    37  32  82 SE12      29.69F WCI  29
BUFFALO SD       N/A     45  33  63 SW8       29.66S
RAPID CITY     CLEAR     44  30  57 NE3       29.75S
$$

REGIONAL REPORTS...WYOMING/IDAHO/WASHINGTON

CITY           SKY/WX    TMP DP  RH WIND       PRES   REMARKS
GILLETTE       CLEAR     47  33  58 SW22      29.74R
SHERIDAN       PTCLDY    39  29  67 VRB7      29.71S
BUFFALO WY     CLEAR     48  28  46 SE9       29.75S
CODY           CLOUDY    38  32  79 SE10      29.79R WCI  31
YELLOWSTONE LA   N/A     33  30  88 W10G24    29.86S WCI  25
IDAHO FALLS    LGT RAIN  39  37  92 SW15      29.90S WCI  31
SALMON         CLOUDY    36  34  93 NW8       29.72R WCI  29
BOISE          CLEAR     45  36  70 SE14      29.83S
SPOKANE        LGT SNOW  32  31  96 N3        29.64F FOG
$$

REGIONAL REPORTS...ALBERTA

CITY           SKY/WX    TMP DP  RH WIND       PRES   REMARKS
EDMONTON       CLOUDY    32  27  80 S5        29.65S
CALGARY        CLOUDY    28  25  86 NE8       29.62R FOG     WCI  20
LETHBRIDGE     FOG       27  25  93 SE7       29.64R VSB 1/4 WCI  19
MEDICINE HAT   FOG       32  32 100 W2        29.66R VSB 1
WATERTON GATE    N/A     34  21  60 W8          N/A  WCI  27
CARDSTON         N/A     27  25  93 SE3         N/A
MILK RIVER       N/A     27  25  93 SE1         N/A
ONEFOUR          N/A     30  28  93 N7          N/A  WCI  23
$$

REGIONAL REPORTS...SASKATCHEWAN

CITY           SKY/WX    TMP DP  RH WIND       PRES   REMARKS
SWIFT CURRENT  LGT SNOW  30  30 100 NE10      29.60R WCI  21
REGINA         MOCLDY    32  30  93 E10       29.62S WCI  24
SASKATOON      CLOUDY    32  27  80 NW5       29.70S
CYPRESS HILLS    N/A     28  27  93 NW7         N/A  WCI  21
ROCKGLEN         N/A     34  30  86 SW15        N/A  WCI  24
ASSINIBOIA       N/A     34  30  86 S5          N/A
$$




USA.gov is the U.S. government's official web portal to all federal, state and local government web resources and services.